Spokane, WA
on Sunday, November 18, 2012

Sunday
Previous Day Next Day
Daily Summary
 ActualAverageRecord
Temperature
Mean Temperature °F 35°F  
Max Temperature 45°F 40°F 65°F (1897)
Min Temperature 33°F 29°F 3°F (1881)
Degree Days
Heating Degree Days 26 30  
Month to date heating degree days 453 486  
Since 1 July heating degree days 1059 1274  
Cooling Degree Days 0 0  
Month to date cooling degree days 0 0  
Year to date cooling degree days 535 450  
Moisture
Dew Point 33°F   
Average Humidity 77    
Maximum Humidity 92    
Minimum Humidity 62    
Precipitation
Precipitation 0.01 in 0.08 in 0.93 in (1955)
Month to date precipitation 1.33 1.31  
Year to date precipitation 16.83 13.27  
Snow
Snow 0.00 in 0.30 in 5.30 in (1955)
Month to date snowfall 5.9 3.1  
Since 1 July snowfall 5.9 3.2  
Since 1 September snowfall 5.9 3.2  
Snow Depth 0.00 in   
Wind
Wind Speed 11 mph   
Max Wind Speed 25 mph   
Max Gust Speed 32 mph   
Visibility 10 miles   
Events Rain   

Key: T is trace of precipitation, MM is missing value
Source: NWS Daily Summary
Time(PST)TemperatureDew PointHumidity Pressure Visibility Wind DirectionWind SpeedGust SpeedPrecipitationEvents Conditions
12:53 AM 37.9°F 36.0°F 93% 29.72 in 10.0 miles SW 17.3 mph 28.8 mph 0.01 in   Overcast
1:53 AM 37.9°F 36.0°F 93% 29.75 in 10.0 miles SSW 20.7 mph - N/A   Overcast
2:53 AM 37.0°F 35.1°F 93% 29.78 in 10.0 miles SSW 20.7 mph 28.8 mph N/A   Mostly Cloudy
3:36 AM 35.6°F 33.8°F 93% 29.78 in 10.0 miles South 16.1 mph - N/A   Scattered Clouds
3:53 AM 36.0°F 33.1°F 89% 29.83 in 10.0 miles SSW 13.8 mph - N/A   Partly Cloudy
4:53 AM 35.1°F 33.1°F 92% 29.87 in 10.0 miles SSW 15.0 mph 20.7 mph N/A   Partly Cloudy
5:53 AM 35.6°F 32.0°F 87% 29.84 in 10.0 miles South 8.1 mph - N/A   Partly Cloudy
6:53 AM 33.1°F 30.9°F 92% 29.89 in 10.0 miles SSE 8.1 mph - N/A   Mostly Cloudy
7:53 AM 34.0°F 30.9°F 89% 29.90 in 10.0 miles SE 5.8 mph - N/A   Mostly Cloudy
8:53 AM 36.0°F 32.0°F 86% 29.90 in 10.0 miles SSE 8.1 mph - N/A   Mostly Cloudy
9:53 AM 39.0°F 32.0°F 76% 29.92 in 10.0 miles South 9.2 mph - N/A   Mostly Cloudy
10:53 AM 41.0°F 33.1°F 73% 29.93 in 10.0 miles South 8.1 mph - N/A   Overcast
11:53 AM 42.1°F 33.1°F 70% 29.92 in 10.0 miles South 11.5 mph - N/A   Overcast
12:53 PM 43.0°F 33.1°F 68% 29.91 in 10.0 miles SSE 9.2 mph - N/A   Overcast
1:53 PM 44.1°F 33.1°F 65% 29.89 in 10.0 miles SSE 9.2 mph - N/A   Overcast
2:53 PM 44.1°F 33.1°F 65% 29.89 in 10.0 miles SSE 9.2 mph - N/A   Overcast
3:53 PM 43.0°F 34.0°F 71% 29.90 in 10.0 miles SSE 10.4 mph - N/A   Overcast
4:53 PM 42.1°F 33.1°F 70% 29.90 in 10.0 miles SSE 10.4 mph - N/A   Overcast
5:53 PM 41.0°F 32.0°F 70% 29.91 in 10.0 miles SSE 6.9 mph - N/A   Overcast
6:53 PM 39.9°F 32.0°F 73% 29.89 in 10.0 miles SSE 9.2 mph - N/A   Scattered Clouds
7:53 PM 39.9°F 32.0°F 73% 29.86 in 10.0 miles SSE 12.7 mph - N/A   Mostly Cloudy
8:53 PM 41.0°F 30.9°F 67% 29.87 in 10.0 miles SSE 12.7 mph 21.9 mph N/A   Overcast
9:53 PM 42.1°F 30.9°F 65% 29.86 in 10.0 miles SSE 12.7 mph - N/A   Overcast
10:53 PM 43.0°F 30.0°F 60% 29.86 in 10.0 miles South 13.8 mph 21.9 mph 0.00 in Rain Light Rain
11:53 PM 41.0°F 33.1°F 73% 29.87 in 10.0 miles South 10.4 mph - 0.00 in Rain Light Rain
Moon Phase
Nov. 18 Nov. 20 Nov. 28 Dec. 06 Dec. 13
Sunrise:07:00 AM (PST) Moon Rise:11:25 AM (PST)11/18
Sunset:04:09 PM (PST) Moon Set:09:41 PM (PST)11/18

Copyright © 2014 The Weather Underground, Inc.